Wetbulb
35.38 36.37 36.40 35.40 34.93 35.46 32.53 33.68 29.91 33.05 33.46 37.62 40.41 41.14 42.13 44.11 45.19 45.08 45.62 47.84 48.98 48.59 50.35 51.96 51.79 51.59 48.28 47.41 46.12 44.39 42.56 41.42 41.65 41.36 41.06 40.65 40.03 39.52 39.33 39.34 38.63 38.15 37.04 36.46
31.55 35.70 35.97 34.23 37.01 37.27 36.98 36.43 34.82 34.99 34.02 40.95 42.57 42.79 42.75 43.20 43.98 43.93 44.29 46.33 48.37 48.46 49.35 49.65 47.07 44.58 43.22 42.93 42.17 42.44 41.37 40.60 39.89 39.87 39.72 38.81 38.24 37.66 38.07 37.47 36.95 36.39 35.80 35.04
30.02 36.50 35.65 33.08 36.87 37.41 37.52 38.33 36.88 33.19 37.59 41.76 39.99 40.54 40.94 41.03 43.12 42.57 43.71 45.95 47.47 47.54 47.91 43.99 41.32 39.72 38.69 39.77 40.12 39.18 38.31 38.09 39.60 38.33 37.77 37.44 37.38 37.39 36.72 36.20 36.13 35.22 34.41 34.15
31.56 33.97 29.20 38.54 41.65 41.30 39.24 40.67 41.42 40.36 41.40 42.14 42.12 42.63 43.34 44.06 43.16 43.62 45.18 46.34 46.41 46.41 42.21 39.23 38.91 38.75 39.12 38.29 37.94 37.58 36.56 37.98 37.42 37.56 36.42 36.71 36.81 36.11 35.51 35.60 34.80 34.09 33.57 33.43
31.02 30.72 35.23 39.45 41.51 39.82 38.08 38.26 42.52 40.32 42.81 43.33 44.30 43.48 40.07 40.39 42.25 43.59 47.06 46.49 44.47 41.28 39.37 38.33 38.56 38.23 37.81 37.82 38.46 36.39 35.06 36.32 36.07 36.60 36.18 35.84 35.17 34.69 34.54 34.00 33.39 33.07 33.02 32.76
33.60 29.21 28.45 39.06 44.22 45.37 44.03 36.53 43.40 42.73 43.98 42.34 43.03 39.66 37.02 40.80 45.18 43.83 44.04 40.95 38.59 38.38 38.29 38.47 38.36 38.85 38.14 36.79 37.71 36.16 36.19 36.37 36.80 36.66 35.70 34.69 34.10 33.25 33.21 33.28 32.32 32.38 32.05 32.48
32.22 30.69 34.79 42.88 44.34 45.15 35.95 37.48 43.66 42.25 44.95 44.32 41.54 38.62 39.66 41.00 42.85 43.03 41.54 39.78 39.61 39.52 38.70 39.32 40.49 40.23 38.17 37.53 35.72 36.06 36.26 35.69 35.54 35.23 34.23 33.78 32.96 32.83 32.67 32.12 31.98 31.80 31.32 32.20
33.17 30.89 30.23 45.09 44.74 39.76 43.79 45.82 44.91 44.43 44.37 43.13 39.87 38.75 39.41 39.55 37.95 40.01 39.12 39.05 38.86 38.42 38.38 39.49 39.49 38.34 35.77 34.11 35.08 35.07 34.34 33.35 32.94 32.82 32.86 32.94 32.23 31.97 31.74 31.44 30.91 30.75 30.58 30.73
39.32 40.05 46.82 47.77 45.84 47.72 46.51 44.37 44.65 44.24 45.31 43.75 39.44 37.35 37.52 36.42 37.37 36.42 36.10 36.34 37.78 36.91 37.00 37.33 36.41 34.79 32.03 32.70 33.37 33.29 33.02 32.28 31.59 31.65 31.75 32.21 31.80 31.29 30.72 30.56 29.69 29.43 28.91 28.66
41.65 45.51 46.39 47.77 48.01 46.31 44.36 43.48 44.13 44.80 44.21 43.89 39.52 38.33 36.46 36.09 35.74 35.52 36.13 35.98 36.44 35.91 34.34 32.70 32.92 32.78 31.94 32.27 33.33 33.18 31.56 30.73 30.90 30.59 30.85 31.03 30.92 30.72 30.21 29.35 28.74 28.17 27.83 27.34
43.01 46.02 47.81 46.37 45.53 44.21 42.65 42.84 43.32 43.99 42.86 41.34 39.66 38.30 37.09 35.62 35.47 35.19 35.21 35.71 35.06 32.57 30.52 29.86 31.22 31.44 32.88 33.83 33.87 31.71 31.15 30.79 30.58 30.71 31.04 30.38 30.08 29.83 29.06 29.67 28.29 26.94 26.86 26.35
41.67 46.79 46.40 45.42 44.07 43.74 42.54 41.40 41.50 40.21 38.79 39.73 38.74 37.15 37.01 35.68 35.76 35.15 33.81 33.00 31.27 30.33 30.05 30.40 31.34 31.93 32.81 33.56 33.04 31.45 30.05 30.19 30.51 30.30 29.97 29.44 28.93 28.67 28.80 27.83 27.71 28.09 28.00 26.95
46.66 46.50 45.00 43.90 43.22 43.31 41.84 41.06 40.61 39.77 38.85 36.81 37.39 37.18 35.53 35.23 35.20 35.46 33.92 33.05 31.81 30.74 30.70 30.96 30.55 30.17 31.64 32.91 33.13 32.04 30.52 29.81 29.26 29.64 29.01 28.34 27.64 26.86 25.73 28.27 29.04 28.17 27.21 27.10
48.22 45.46 43.63 42.71 43.06 42.13 41.31 40.31 39.84 38.89 38.44 37.31 36.16 36.41 35.40 34.24 34.16 33.40 31.99 31.54 31.58 31.11 30.64 30.44 29.98 29.45 31.48 32.07 31.16 30.71 29.79 30.40 29.45 28.85 28.33 27.88 26.89 26.12 25.80 24.69 23.65 24.60 27.30 27.14
46.54 45.56 43.50 43.64 41.79 40.37 39.60 38.70 37.02 36.50 36.29 35.82 36.20 34.64 34.01 32.42 30.78 30.07 30.91 30.84 30.61 30.08 29.78 29.71 29.00 29.02 31.42 31.47 30.34 29.99 29.63 29.08 29.04 28.14 27.41 26.49 26.30 25.51 25.09 24.57 23.80 23.52 24.40 25.94
44.08 42.60 41.64 40.84 39.74 38.88 38.74 38.24 36.51 35.79 35.90 34.83 34.25 33.98 32.98 31.60 30.48 30.04 30.15 30.50 29.26 27.91 28.94 28.77 27.99 28.81 30.01 29.99 29.87 29.87 28.71 27.81 27.47 26.82 26.14 25.50 25.07 24.29 24.07 23.47 22.75 22.87 22.93 22.96
39.02 36.71 37.18 36.60 37.12 38.08 38.39 39.45 38.33 36.65 35.63 34.81 33.07 31.93 30.99 29.98 29.27 29.29 30.31 31.16 29.69 29.03 29.00 28.26 27.14 28.47 28.91 29.24 29.13 28.56 27.92 26.78 25.02 25.71 24.91 24.16 23.68 23.59 23.21 22.36 21.99 22.09 22.29 23.81
45.06 44.65 41.91 41.58 39.57 38.91 39.12 39.49 37.92 36.38 34.73 33.05 31.75 31.26 30.15 29.81 28.62 28.53 28.51 28.69 28.02 27.59 27.63 27.88 28.14 28.11 27.84 28.21 28.46 27.64 26.65 25.35 24.75 24.04 23.74 23.37 23.26 22.98 22.32 22.01 21.84 21.53 22.07 22.99
43.03 41.94 42.44 42.17 41.46 40.15 38.78 37.07 36.26 35.35 33.09 32.23 31.37 30.76 31.55 30.22 28.99 27.95 28.44 27.82 26.67 25.15 25.80 27.92 28.37 28.19 27.46 27.08 27.13 26.36 25.34 24.30 23.62 23.38 22.78 22.80 22.82 22.55 22.04 21.86 21.33 21.25 21.38 21.09
39.42 40.75 41.12 40.35 39.93 38.15 36.58 36.36 34.43 32.97 32.43 32.63 31.69 29.75 28.77 28.43 28.19 28.25 28.71 27.74 28.62 27.61 28.39 27.53 28.37 28.24 27.37 25.84 25.56 25.02 24.00 23.22 22.59 22.41 21.88 21.50 21.56 21.23 21.36 21.66 21.17 20.68 20.31 20.02
37.52 37.69 36.89 36.65 36.58 36.66 35.39 34.42 33.22 31.70 31.45 31.04 30.17 28.84 27.70 27.67 28.60 28.07 25.51 24.33 26.01 28.52 27.94 27.52 27.35 26.97 27.01 25.57 24.64 23.89 23.06 22.40 21.97 21.45 20.83 20.59 20.53 20.68 20.63 20.62 20.20 19.72 19.15 18.92
35.54 35.21 34.86 34.34 33.96 32.77 33.28 33.54 32.36 30.72 30.87 31.03 29.84 28.05 26.88 25.95 26.35 26.71 28.24 26.08 26.88 28.42 27.15 26.93 26.74 26.74 25.54 23.88 23.53 22.70 21.93 21.40 21.12 21.01 20.43 20.19 19.84 19.57 19.55 19.31 18.61 18.89 19.07 19.13
35.42 34.91 34.41 33.96 32.80 32.22 32.69 31.76 31.33 30.87 29.53 28.18 27.09 26.65 26.46 26.01 26.55 24.73 22.84 26.89 27.34 27.24 26.90 27.22 27.28 25.69 23.15 22.88 22.07 21.38 21.03 20.53 20.27 20.11 19.92 19.69 19.51 19.41 18.70 18.34 18.43 18.49 18.19 18.06
33.95 33.93 33.27 33.01 32.33 31.10 28.98 29.25 28.32 28.68 28.18 27.46 27.56 27.45 26.45 25.07 25.64 27.88 28.03 28.24 27.91 27.04 27.35 27.51 25.69 22.99 21.44 21.28 20.69 20.25 20.08 19.91 19.55 19.41 19.53 20.82 19.23 18.72 18.34 18.00 17.43 17.83 17.68 17.81
33.27 31.68 30.88 30.55 30.32 29.21 27.33 27.11 26.25 26.00 25.82 25.46 25.74 26.54 27.37 27.81 26.33 26.09 26.58 26.50 27.43 26.10 24.93 25.51 23.56 20.53 20.64 20.17 19.80 19.69 19.59 19.28 19.04 19.24 19.10 18.58 18.17 17.99 18.03 17.74 17.26 17.19 17.49 17.99
31.11 30.99 31.15 31.93 30.13 28.08 27.00 27.36 25.48 25.69 24.99 23.75 24.00 24.67 24.77 25.64 26.24 25.37 24.96 24.72 23.25 23.12 21.09 20.64 20.47 20.16 19.50 19.47 19.53 19.43 18.95 18.72 18.66 18.25 18.72 18.20 17.98 17.48 17.17 16.84 16.53 16.47 16.68 16.80
31.64 30.64 27.81 27.29 27.76 27.89 28.30 27.02 25.47 24.78 25.24 24.21 22.37 23.38 23.39 23.20 23.49 22.48 22.41 20.95 20.34 19.89 19.32 18.93 18.84 18.86 18.74 19.02 18.88 18.65 18.58 18.53 19.10 18.56 18.29 17.76 17.22 16.85 16.72 16.61 16.51 16.44 16.34 16.16
MSLP
1009.07 1008.38 1008.06 1007.61 1007.18 1007.05 1007.34 1006.65 1005.96 1002.11 1002.23 1000.38 1000.28 1000.33 1001.19 1000.75 1000.10 999.72 999.96 1000.33 1000.17 1000.75 1000.55 1000.56 1001.05 1001.89 1003.11 1004.27 1005.53 1006.41 1006.85 1007.84 1008.95 1009.67 1010.89 1012.02 1012.93 1013.82 1014.74 1015.40 1015.91 1016.51 1017.12 1017.63
1008.68 1007.66 1007.11 1006.34 1005.65 1005.51 1005.44 1005.03 1004.46 1003.41 1001.58 1001.25 1000.84 1001.05 1000.96 1001.33 1001.21 1001.06 1001.13 1000.84 1000.49 1001.06 1001.07 1001.71 1002.59 1003.76 1004.81 1005.44 1006.19 1006.95 1007.52 1008.50 1009.53 1010.57 1011.66 1012.69 1013.63 1014.51 1015.22 1016.11 1016.52 1016.94 1017.46 1017.89
1007.62 1006.39 1005.71 1004.73 1004.58 1004.39 1004.25 1003.89 1003.41 1002.28 1000.95 1000.61 1000.87 1001.37 1001.63 1001.85 1001.76 1001.60 1001.31 1000.87 1000.73 1001.30 1001.80 1003.11 1004.32 1005.23 1005.79 1006.34 1006.88 1007.82 1008.42 1009.76 1010.52 1011.30 1012.18 1013.16 1014.10 1014.73 1015.91 1016.75 1016.87 1017.25 1017.78 1018.08
1008.06 1006.42 1004.51 1003.45 1003.48 1003.46 1003.24 1002.34 1001.86 1001.09 1000.21 1000.17 1000.38 1001.22 1001.77 1001.90 1001.67 1001.35 1000.89 1000.88 1001.38 1001.99 1003.21 1004.52 1005.39 1006.10 1006.45 1007.56 1008.37 1009.17 1010.19 1010.60 1011.69 1011.35 1012.77 1013.74 1014.49 1015.34 1016.45 1017.00 1017.12 1017.51 1017.88 1018.10
1008.12 1006.28 1003.71 1002.39 1002.20 1002.61 1002.64 1001.58 1001.01 1000.58 999.95 999.56 1000.02 1000.92 1002.03 1002.38 1001.99 1001.43 1000.95 1001.53 1002.41 1003.43 1004.41 1005.34 1006.08 1006.92 1007.62 1008.80 1009.65 1010.30 1010.83 1011.82 1011.83 1012.37 1013.28 1014.34 1015.23 1016.15 1016.83 1017.02 1017.39 1017.67 1017.96 1018.14
1007.60 1006.28 1003.70 1001.83 1001.23 1001.71 1001.94 1000.84 1000.45 1000.30 999.94 1000.19 1000.55 1000.90 1002.87 1002.43 1002.52 1002.41 1002.55 1003.29 1003.99 1004.71 1005.36 1005.95 1006.76 1007.37 1008.12 1009.33 1009.88 1011.02 1011.71 1011.92 1012.33 1013.38 1014.29 1015.33 1016.02 1016.50 1016.95 1017.29 1017.62 1017.88 1018.03 1018.19
1006.54 1005.60 1003.21 1001.17 1001.05 1001.35 1001.20 1001.30 1000.62 1000.75 1000.42 1000.56 1001.29 1002.79 1003.55 1003.83 1003.54 1003.64 1003.94 1004.78 1005.42 1005.92 1006.22 1006.63 1007.31 1008.03 1008.67 1009.65 1010.74 1011.49 1011.75 1012.75 1013.75 1014.65 1015.20 1015.73 1016.30 1016.81 1017.16 1017.52 1017.71 1017.84 1018.05 1018.00
1004.94 1004.04 1002.01 1000.76 1000.65 1000.90 1000.88 1000.86 1000.90 1000.83 1001.24 1001.54 1002.63 1003.57 1004.16 1004.57 1004.90 1004.84 1005.12 1005.49 1006.05 1006.39 1006.95 1007.51 1008.10 1008.56 1009.53 1010.57 1011.63 1012.38 1013.18 1013.89 1014.64 1015.22 1015.72 1016.23 1016.68 1017.10 1017.42 1017.65 1017.82 1017.85 1017.89 1017.88
1002.28 1000.93 1000.19 1000.38 1000.55 1000.60 1001.04 1001.24 1001.20 1001.43 1001.78 1002.32 1003.39 1004.27 1004.96 1005.37 1005.68 1005.98 1006.27 1006.57 1006.93 1007.22 1007.80 1008.61 1009.44 1010.03 1010.67 1012.08 1012.74 1013.24 1013.77 1014.53 1015.29 1015.92 1016.36 1016.63 1016.91 1017.35 1017.66 1017.84 1017.94 1018.00 1018.10 1018.10
1001.59 1000.01 1000.04 1000.06 1000.41 1001.05 1001.63 1001.70 1001.87 1001.96 1002.38 1002.86 1003.81 1004.81 1005.68 1006.24 1006.67 1006.95 1007.20 1007.63 1008.09 1008.56 1009.14 1010.06 1010.99 1011.53 1011.92 1012.60 1013.21 1013.80 1014.58 1015.38 1015.96 1016.37 1016.79 1017.25 1017.57 1017.77 1017.90 1018.12 1018.24 1018.34 1018.28 1018.24
1000.79 1000.11 999.87 1000.36 1001.04 1001.62 1002.04 1002.34 1002.54 1002.78 1003.16 1003.68 1004.44 1005.32 1006.09 1006.77 1007.29 1007.75 1008.22 1008.72 1009.20 1009.84 1010.54 1011.31 1011.98 1012.54 1013.00 1013.44 1013.94 1014.56 1015.27 1015.92 1016.54 1016.98 1017.22 1017.56 1017.92 1018.22 1018.42 1018.53 1018.85 1018.83 1018.73 1018.70
999.90 1000.27 1000.59 1001.05 1001.80 1002.32 1002.59 1002.99 1003.33 1003.64 1004.36 1004.86 1005.23 1005.78 1006.75 1007.40 1008.04 1008.50 1009.08 1009.79 1010.37 1010.94 1011.50 1012.31 1012.90 1013.46 1013.96 1014.34 1014.75 1015.27 1015.91 1016.50 1016.96 1017.37 1017.77 1018.11 1018.33 1018.42 1018.78 1018.90 1019.01 1019.07 1019.05 1018.94
1000.17 1000.98 1001.44 1002.03 1002.60 1002.94 1003.29 1003.76 1004.15 1004.48 1005.13 1005.77 1006.45 1006.65 1007.28 1007.83 1008.82 1009.48 1010.13 1010.72 1011.32 1011.93 1012.57 1013.21 1013.83 1014.33 1014.82 1015.13 1015.40 1015.84 1016.42 1017.07 1017.60 1017.88 1018.17 1018.40 1018.58 1018.62 1018.58 1018.52 1018.61 1018.68 1018.68 1018.67
1000.80 1001.56 1001.95 1002.51 1002.70 1003.57 1004.12 1004.71 1004.98 1005.43 1005.97 1006.65 1007.40 1007.82 1008.34 1008.64 1009.59 1010.32 1011.07 1011.79 1012.32 1012.80 1013.43 1014.07 1014.60 1015.17 1015.60 1015.89 1016.29 1016.75 1017.28 1017.66 1017.99 1018.29 1018.49 1018.64 1018.76 1018.77 1018.73 1018.58 1018.47 1018.40 1018.39 1018.40
1001.11 1001.77 1002.39 1002.81 1003.62 1004.24 1004.80 1005.43 1005.67 1006.16 1006.84 1007.52 1008.18 1008.68 1009.26 1009.77 1010.39 1011.31 1012.11 1012.74 1013.21 1013.70 1014.36 1014.91 1015.41 1016.00 1016.41 1016.80 1017.15 1017.50 1017.88 1018.23 1018.37 1018.58 1018.82 1018.99 1018.95 1018.91 1018.85 1018.79 1018.68 1018.51 1018.30 1018.12
1001.50 1002.34 1002.94 1003.37 1003.93 1004.62 1005.07 1005.68 1006.08 1006.70 1007.46 1008.24 1008.83 1009.45 1010.15 1010.90 1011.51 1012.18 1012.91 1013.41 1013.72 1014.51 1015.14 1015.63 1016.29 1016.91 1017.23 1017.50 1017.73 1018.01 1018.45 1018.76 1018.82 1018.90 1019.05 1019.08 1019.05 1019.02 1018.98 1018.90 1018.76 1018.50 1018.29 1018.17
1002.29 1002.83 1003.24 1003.69 1004.13 1004.70 1005.15 1005.66 1006.34 1007.00 1007.84 1008.58 1009.35 1010.13 1010.88 1011.58 1012.29 1012.90 1013.46 1014.03 1014.70 1015.27 1015.90 1016.50 1017.13 1017.61 1017.86 1018.00 1018.09 1018.30 1018.56 1018.92 1019.29 1019.16 1019.20 1019.27 1019.25 1019.15 1019.10 1019.02 1018.86 1018.68 1018.51 1018.32
1001.74 1002.03 1002.69 1003.10 1003.76 1004.41 1005.17 1005.83 1006.60 1007.37 1008.21 1009.08 1009.91 1010.63 1011.46 1012.11 1012.78 1013.63 1014.28 1014.93 1015.59 1016.22 1016.82 1017.25 1017.65 1018.01 1018.29 1018.46 1018.60 1018.79 1018.95 1019.20 1019.34 1019.37 1019.38 1019.34 1019.35 1019.36 1019.25 1019.12 1018.98 1018.73 1018.44 1018.21
1002.11 1002.26 1002.54 1002.99 1003.55 1004.35 1005.19 1006.07 1007.00 1007.92 1008.88 1009.53 1010.21 1011.05 1011.86 1012.73 1013.50 1014.26 1014.92 1015.45 1016.04 1016.62 1017.35 1017.69 1018.07 1018.30 1018.67 1019.06 1019.08 1019.16 1019.26 1019.37 1019.45 1019.45 1019.54 1019.55 1019.38 1019.30 1019.21 1019.09 1018.95 1018.78 1018.56 1018.30
1002.75 1002.79 1002.97 1003.53 1004.10 1004.78 1005.56 1006.54 1007.51 1008.50 1009.42 1009.99 1010.69 1011.56 1012.48 1013.41 1014.09 1014.61 1015.21 1015.80 1016.21 1016.80 1017.44 1018.03 1018.29 1018.64 1019.02 1019.37 1019.42 1019.46 1019.52 1019.54 1019.57 1019.61 1019.67 1019.64 1019.45 1019.32 1019.20 1019.09 1018.97 1018.81 1018.64 1018.44
1003.61 1003.82 1004.07 1004.51 1005.20 1005.67 1006.37 1006.99 1007.78 1008.82 1009.72 1010.52 1011.11 1012.04 1012.97 1013.86 1014.46 1015.04 1015.73 1016.34 1017.16 1017.41 1017.81 1018.33 1018.62 1018.96 1019.22 1019.53 1019.64 1019.70 1019.73 1019.73 1019.76 1019.75 1019.74 1019.65 1019.51 1019.33 1019.20 1019.07 1018.96 1018.85 1018.69 1018.49
1004.49 1004.76 1005.13 1005.53 1006.02 1006.77 1007.38 1007.92 1008.63 1009.43 1010.17 1011.01 1011.91 1012.69 1013.41 1014.31 1014.98 1015.54 1015.95 1016.57 1017.39 1017.83 1018.23 1018.62 1018.99 1019.27 1019.57 1019.79 1019.84 1019.89 1019.97 1020.01 1019.96 1019.88 1019.77 1019.68 1019.54 1019.40 1019.26 1019.19 1019.09 1019.01 1018.75 1018.49
1005.14 1005.44 1005.86 1006.20 1006.71 1007.44 1008.18 1008.79 1009.43 1009.97 1010.74 1011.60 1012.38 1013.18 1013.78 1014.54 1015.17 1015.70 1016.51 1017.29 1017.71 1018.15 1018.47 1018.84 1019.34 1019.72 1019.94 1019.98 1020.08 1020.12 1020.09 1020.07 1019.99 1019.88 1019.76 1019.68 1019.58 1019.39 1019.34 1019.31 1019.12 1018.97 1018.74 1018.46
1006.06 1006.20 1006.39 1006.81 1007.41 1008.02 1008.68 1009.57 1010.22 1010.86 1011.59 1012.45 1013.09 1013.76 1014.24 1015.03 1015.89 1016.24 1016.71 1017.42 1017.99 1018.46 1018.75 1019.30 1019.74 1020.07 1020.17 1020.18 1020.22 1020.21 1020.15 1020.07 1020.00 1019.92 1019.79 1019.65 1019.58 1019.51 1019.41 1019.22 1019.04 1018.87 1018.63 1018.31
1006.78 1007.08 1007.34 1007.51 1007.79 1008.43 1009.29 1010.07 1010.88 1011.80 1012.46 1013.28 1013.98 1014.57 1014.98 1015.34 1015.79 1016.78 1017.21 1017.84 1018.43 1018.83 1019.29 1019.72 1020.04 1020.25 1020.24 1020.28 1020.26 1020.19 1020.13 1020.06 1019.98 1019.93 1019.76 1019.65 1019.53 1019.40 1019.23 1019.07 1018.89 1018.65 1018.35 1017.99
1007.66 1007.62 1007.88 1008.11 1008.27 1008.85 1009.47 1010.11 1010.92 1011.95 1012.75 1013.78 1014.71 1015.23 1015.77 1016.15 1016.54 1017.21 1017.80 1018.39 1018.94 1019.33 1019.71 1020.03 1020.20 1020.32 1020.37 1020.35 1020.27 1020.16 1020.08 1019.97 1019.88 1019.81 1019.68 1019.55 1019.42 1019.26 1019.03 1018.79 1018.60 1018.33 1018.02 1017.68
1008.11 1008.22 1008.49 1008.89 1009.30 1009.57 1009.76 1010.23 1011.01 1012.15 1012.98 1013.84 1014.72 1015.65 1016.16 1016.70 1017.15 1017.69 1018.29 1018.84 1019.31 1019.69 1019.99 1020.20 1020.33 1020.41 1020.43 1020.35 1020.24 1020.13 1020.03 1019.92 1019.83 1019.69 1019.50 1019.34 1019.17 1019.00 1018.73 1018.43 1018.19 1017.93 1017.62 1017.27
Wind_Speed
17 22 20 21 24 24 20 21 18 31 25 24 19 14 17 22 19 13 9 11 12 4 6 8 8 11 13 12 13 15 16 16 14 15 14 13 13 12 11 10 9 9 8 6
12 21 21 20 23 18 17 19 20 25 31 23 18 9 8 11 14 11 10 14 13 6 8 8 11 12 12 13 14 14 16 16 14 15 14 13 12 11 11 9 9 8 6 4
7 10 20 10 4 6 8 11 9 10 18 17 12 11 14 15 16 12 13 15 6 9 10 11 11 12 12 14 15 15 16 14 14 15 15 13 12 12 10 8 7 6 5 2
7 12 4 3 2 6 11 16 10 15 18 17 13 8 9 12 14 14 10 6 9 10 12 12 12 14 14 14 14 14 14 16 13 16 14 12 11 10 9 7 6 4 3 1
4 6 18 4 6 3 4 9 11 12 14 9 5 4 2 8 6 7 8 10 12 12 14 13 14 15 16 16 13 12 14 11 12 13 13 11 10 10 7 6 5 3 1 2
1 4 6 6 10 1 3 2 15 13 11 6 5 3 3 6 8 11 13 13 13 14 14 14 14 14 17 17 16 15 14 12 13 12 11 10 10 8 6 5 4 2 1 2
5 5 8 14 7 2 5 8 12 11 10 6 4 5 6 7 10 11 13 15 13 13 13 13 15 15 15 15 16 14 14 13 12 11 10 10 9 7 5 4 2 0 2 3
5 4 7 2 4 4 7 7 8 7 4 8 10 8 9 11 10 11 12 13 15 14 14 14 15 14 16 16 13 13 13 12 12 11 8 7 8 6 5 2 1 2 3 4
5 3 5 5 9 9 6 8 7 5 2 7 10 9 10 10 11 11 12 11 12 12 15 14 14 13 17 14 12 12 13 12 11 9 7 6 6 4 3 1 2 3 3 4
5 2 6 8 4 1 6 6 4 1 4 5 12 12 11 10 11 11 10 11 11 13 14 14 13 14 13 12 11 12 12 11 8 8 7 6 3 2 1 1 2 3 4 4
9 14 10 4 5 3 3 3 5 7 6 10 13 12 12 11 11 11 12 11 11 12 13 14 12 12 11 11 11 11 10 8 7 5 5 4 3 2 1 1 3 4 4 6
5 5 5 5 4 3 3 5 6 9 10 9 11 15 13 12 11 11 12 12 12 13 13 13 12 12 11 10 10 10 8 6 5 4 3 2 0 1 6 3 2 5 7 6
9 3 3 2 3 3 4 6 8 10 10 11 9 12 11 14 11 15 13 13 12 13 13 13 12 11 10 8 8 8 7 7 4 3 2 1 0 2 4 3 8 7 5 7
5 3 3 5 1 5 7 9 11 12 11 11 11 11 12 14 14 12 12 12 12 13 13 12 12 11 9 9 8 8 7 7 4 3 2 1 2 3 3 5 6 5 6 8
6 5 2 8 8 9 10 10 12 12 12 12 10 12 12 13 14 13 12 12 12 12 11 12 12 10 8 8 6 7 5 3 3 2 2 2 2 3 4 5 5 6 6 7
5 4 6 8 10 10 11 11 12 13 12 12 12 12 13 13 13 12 12 11 11 10 9 11 10 8 7 7 6 6 6 5 3 1 1 2 3 4 4 5 6 6 6 6
6 2 2 3 8 11 11 11 11 12 13 12 13 13 13 13 13 12 11 10 10 9 9 9 9 7 5 4 5 4 3 3 2 1 2 3 4 4 5 5 6 6 6 7
8 3 11 10 13 13 12 11 11 13 12 13 13 13 13 12 12 11 11 11 10 10 8 7 7 6 6 5 4 3 2 2 2 2 3 3 4 5 5 5 6 6 6 7
7 5 7 8 11 12 12 12 12 11 12 13 13 13 11 12 11 11 11 11 10 10 8 8 10 7 6 5 3 2 2 2 1 2 3 5 4 4 5 5 6 7 7 7
2 4 6 8 9 12 14 12 13 13 12 12 13 13 13 12 11 11 9 8 6 7 8 9 6 6 6 5 2 2 1 2 3 3 3 4 4 5 5 7 7 7 7 7
4 6 8 10 9 9 11 13 14 14 12 12 13 13 12 11 10 10 10 7 6 8 9 9 5 4 3 4 1 1 2 3 3 3 4 4 5 6 6 6 6 6 6 6
4 6 7 9 10 10 9 10 12 13 13 12 13 13 14 12 10 7 5 8 6 11 6 4 4 4 5 2 1 2 2 3 3 4 4 5 5 6 6 6 6 6 6 6
4 6 8 9 10 11 11 11 11 12 13 13 13 12 10 8 7 8 7 6 6 7 5 4 8 7 4 2 2 2 3 3 4 4 5 5 6 6 5 5 5 6 6 6
4 6 7 9 11 11 13 10 10 11 11 11 11 10 11 8 6 5 9 10 13 9 5 7 6 5 2 2 2 2 3 4 4 5 6 8 5 5 5 6 6 6 6 8
3 5 7 10 11 8 12 12 12 11 12 11 11 8 8 4 4 7 7 7 13 8 6 7 6 3 1 1 2 3 4 4 4 5 5 5 5 5 5 6 6 6 7 7
4 5 5 6 6 8 9 9 9 9 9 9 7 6 6 6 8 8 7 9 6 7 5 3 2 1 1 2 3 4 4 5 5 5 6 5 5 5 6 6 6 6 7 7
2 6 6 6 5 7 8 9 11 10 9 9 10 7 8 7 8 8 9 6 5 4 4 2 1 1 2 3 4 4 5 5 6 6 5 5 5 6 6 6 6 6 7 7
Wind_Direction
266 276 280 273 272 271 256 254 253 277 276 274 294 310 276 282 298 288 309 293 309 256 205 176 122 121 113 130 137 140 129 121 124 124 119 122 118 118 119 120 121 121 118 117
273 265 258 269 280 282 266 259 254 261 269 277 289 345 327 316 303 307 302 296 287 194 177 125 118 125 134 135 131 130 118 120 120 118 115 118 115 114 113 118 119 113 111 108
270 320 308 271 262 270 262 253 254 267 273 284 286 285 294 290 287 294 300 274 189 170 148 125 131 131 130 122 113 108 109 111 122 120 118 115 116 116 117 124 118 116 115 104
293 306 273 18 79 278 275 285 303 294 282 273 283 274 271 266 268 272 262 150 148 131 120 125 124 120 111 93 95 104 113 118 125 112 111 116 115 113 118 124 114 111 111 75
275 315 271 316 345 327 333 311 7 338 331 322 304 275 48 350 322 296 119 122 112 113 120 115 116 107 99 96 96 111 110 118 103 109 115 111 112 117 123 119 117 112 78 348
332 309 302 296 343 83 275 313 12 351 340 15 346 28 77 360 58 46 77 101 109 104 107 114 113 119 122 128 126 126 127 120 106 106 108 115 119 114 104 97 97 87 349 297
240 261 273 260 314 315 292 352 345 342 345 12 33 37 90 78 64 100 109 113 115 117 114 124 128 126 114 111 110 110 99 99 104 108 109 108 108 109 110 100 98 294 271 284
194 235 267 78 286 302 354 323 329 313 323 71 98 90 85 94 86 93 104 100 105 108 108 108 113 110 102 98 103 102 105 103 102 101 103 108 108 104 88 78 290 308 314 319
223 229 345 305 281 312 327 305 308 308 8 113 111 105 100 93 97 100 93 93 96 99 99 94 95 100 105 109 110 108 102 99 100 100 97 95 99 109 116 38 351 336 317 314
314 158 298 301 299 359 332 321 322 9 110 121 120 116 107 108 108 103 102 106 108 103 97 95 98 100 99 108 109 105 103 105 105 101 100 101 92 70 56 352 322 311 318 319
263 278 290 81 34 10 44 50 83 76 88 114 121 116 119 115 113 114 116 111 103 100 100 99 100 99 101 107 109 104 103 100 99 108 99 98 67 35 351 69 357 327 328 326
276 11 317 18 41 26 91 93 99 109 104 102 123 122 120 113 118 119 115 110 105 103 104 104 102 101 101 101 106 110 108 107 104 104 91 77 88 194 192 205 285 299 308 310
284 46 13 56 69 62 101 109 112 110 112 115 114 118 122 119 117 116 113 112 106 106 105 106 104 98 97 103 107 105 109 112 101 107 104 93 303 321 321 215 225 245 271 308
226 185 227 203 144 124 111 109 106 105 106 105 115 116 115 113 113 106 103 108 108 107 104 105 103 99 100 97 96 96 93 95 112 113 101 51 1 330 321 326 324 325 335 322
229 204 45 113 125 125 125 134 122 118 120 119 117 118 119 113 107 108 108 107 103 100 103 108 105 100 100 103 104 109 111 101 96 90 55 356 334 329 329 322 321 320 320 325
126 167 160 162 152 152 151 151 136 134 131 130 127 121 113 110 109 109 110 114 113 113 114 112 109 113 112 114 116 109 96 81 53 44 25 350 345 332 326 328 322 319 322 327
148 189 141 122 163 166 171 161 149 143 140 138 128 123 119 116 111 112 113 104 106 111 112 120 120 117 112 110 101 98 96 95 29 358 6 359 338 325 328 321 319 321 318 321
219 212 185 183 177 168 164 151 144 146 143 135 130 128 127 128 124 122 119 116 112 108 107 114 119 117 106 92 85 89 88 81 35 12 346 342 333 328 319 317 315 313 315 319
200 185 177 177 170 159 147 141 144 131 133 136 134 134 127 122 125 126 131 130 128 126 128 125 124 113 107 94 98 88 73 56 8 353 343 318 310 318 311 312 315 316 317 319
130 126 140 140 144 147 144 140 133 136 139 137 126 124 126 129 132 132 135 122 125 122 134 131 128 124 117 109 69 78 55 18 349 338 321 314 310 315 313 310 312 312 318 318
110 117 119 129 137 131 137 140 141 142 138 137 134 134 131 133 133 126 128 121 120 132 126 137 130 127 113 121 121 65 18 352 330 322 314 313 313 310 311 312 315 314 315 314
117 130 127 128 128 122 130 135 129 133 135 132 125 129 129 129 126 103 93 130 136 137 139 131 124 122 112 124 69 29 1 331 314 311 311 311 307 310 311 314 312 311 306 309
136 139 146 139 137 132 126 126 131 131 129 132 134 137 133 130 131 127 126 141 134 142 129 123 123 121 117 75 40 1 324 310 309 312 309 305 305 305 312 307 301 302 302 301
139 146 137 128 129 131 128 127 121 119 118 121 121 123 127 123 97 80 115 135 135 137 126 131 131 114 68 50 2 321 307 311 314 308 304 302 302 306 298 295 297 297 296 299
124 115 134 146 144 134 125 124 114 115 114 111 109 111 112 93 114 133 125 125 135 127 117 121 117 92 44 357 318 308 315 314 308 304 303 303 293 289 289 291 288 288 284 285
170 163 161 165 136 140 139 139 130 132 127 122 114 110 103 108 117 118 114 123 124 125 117 128 103 71 340 318 315 317 314 312 309 305 300 293 289 285 284 287 288 285 283 282
126 130 120 118 128 145 149 140 135 138 134 135 123 123 123 122 125 120 125 126 126 121 118 116 107 345 322 317 316 310 309 302 299 293 290 291 290 283 281 284 283 283 282 280